Probability
0 0 0 0 0 0 0 0 0 0 0 0 0 0 0 0 0 0 0 0 0 0 0 0 0 0 0 0 0 0 0 0 0 0 0 0 0 0 0 0 0 0 0
0 0 0 0 0 0 0 0 0 0 0 0 0 0 0 0 0 0 0 0 0 0 0 0 0 0 0 0 0 0 0 0 0 0 0 0 0 0 0 0 0 0 0
0 0 0 0 0 0 0 0 0 0 0 0 0 0 0 0 0 0 0 0 0 0 0 0 0 0 0 0 0 0 0 0 0 0 0 0 0 0 0 0 0 0 0
0 0 0 0 0 0 0 0 0 0 0 0 0 0 0 0 0 0 0 0 0 0 0 0 0 0 0 0 0 0 0 0 0 0 0 0 0 0 0 0 0 0 0
0 0 0 0 0 0 0 0 0 0 0 0 0 0 0 0 0 0 0 0 0 0 0 0 0 0 0 0 0 0 0 0 0 0 0 0 0 0 0 0 0 0 0
0 0 0 0 0 0 0 0 0 0 0 0 0 0 0 0 0 0 0 0 0 0 0 0 0 0 0 0 0 0 0 0 0 0 0 0 0 0 0 0 0 0 0
0 0 0 0 0 0 0 0 0 0 0 0 0 0 0 0 0 0 0 0 0 0 0 0 0 0 0 0 0 0 0 0 0 0 0 0 0 0 0 0 0 0 0
0 0 0 0 0 0 0 0 0 0 0 0 0 0 0 0 0 0 0 0 0 0 0 0 0 0 0 0 0 0 0 0 0 0 0 0 0 0 0 0 0 0 0
0 0 0 0 0 0 0 0 0 0 0 0 0 0 0 0 0 0 0 0 0 0 0 0 0 0 0 0 0 0 0 0 0 0 0 0 0 0 0 0 0 0 0
0 0 0 0 0 0 0 0 0 0 0 0 0 0 0 0 0 0 0 0 0 0 0 0 0 0 0 0 0 0 0 0 0 0 0 0 0 0 0 0 0 0 0
0 0 0 0 0 0 0 0 0 0 0 0 0 0 0 0 0 0 0 0 0 0 0 0 0 0 0 0 0 0 0 0 0 0 0 0 0 0 0 0 0 0 0
0 0 0 0 0 0 0 0 0 0 0 0 0 0 0 0 0 0 0 0 0 0 0 0 0 0 0 0 0 0 0 0 0 0 0 0 0 0 0 0 0 0 0
0 0 0 0 0 0 0 0 0 0 0 0 0 0 0 0 0 0 0 0 0 0 0 0 0 0 0 0 0 0 0 0 0 0 0 0 0 0 0 0 0 0 0
0 0 0 0 0 0 0 0 0 0 0 0 0 0 0 0 0 0 0 0 0 0 0 0 0 0 0 0 0 0 0 0 0 0 0 0 0 0 0 0 0 0 0
0 0 0 0 0 0 0 0 0 0 0 0 0 0 0 0 0 0 0 0 0 0 0 0 0 0 0 0 0 0 0 0 0 0 0 0 0 0 0 0 0 0 0
0 0 0 0 0 0 0 0 0 0 0 0 0 0 0 0 0 0 0 0 0 0 0 0 0 0 0 0 0 0 0 0 0 0 0 0 0 0 0 0 0 0 0
0 0 0 0 0 0 0 0 0 0 0 0 0 0 0 0 0 0 0 0 0 0 0 0 0 0 0 0 0 0 0 0 0 0 0 0 0 0 0 0 0 0 0
0 0 0 0 0 0 0 0 0 0 0 0 0 0 0 0 0 0 0 0 0 0 0 0 0 0 0 0 0 0 0 0 0 0 0 0 0 0 0 0 0 0 0
0 0 0 0 0 0 0 0 0 0 0 0 0 0 0 0 0 0 0 0 0 0 0 0 0 0 0 0 0 0 0 0 0 0 0 0 0 0 0 0 0 0 0
0 0 0 0 0 0 0 0 0 0 0 0 0 0 0 0 0 0 0 0 0 0 0 0 0 0 0 0 0 0 0 0 0 0 0 0 0 0 0 0 0 0 0
0 0 0 0 0 0 0 0 0 0 0 0 0 0 0 0 0 0 0 0 0 0 0 0 0 0 0 0 0 0 0 0 0 0 0 0 0 0 0 0 0 0 0
0 0 0 0 0 0 0 0 0 0 0 0 0 0 0 0 0 0 0 0 0 0 0 0 0 0 0 0 0 0 0 0 0 0 0 0 0 0 0 0 0 0 0
0 0 0 0 0 0 0 0 0 0 0 0 0 0 0 0 0 0 0 0 0 0 0 0 0 0 0 0 0 0 0 0 0 0 0 0 0 0 0 0 0 0 0
0 0 0 0 0 0 0 0 0 0 0 0 0 0 0 0 0 0 0 0 0 0 0 0 0 0 0 0 0 0 0 0 0 0 0 0 0 0 0 0 0 0 0
0 0 0 0 0 0 0 0 0 0 0 0 0 0 0 0 0 0 0 0 0 0 0 0 0 0 0 0 0 0 0 0 0 0 0 0 0 0 0 0 0 0 0
0 0 0 0 0 0 0 0 0 0 0 0 0 0 0 0 0 0 0 0 0 0 0 0 0 0 0 0 0 0 0 0 0 0 0 0 0 0 0 0 0 0 0
Wind_Speed
9 9 9 8 8 7 7 9 10 10 9 8 6 6 6 5 5 6 7 7 8 8 8 8 7 6 7 6 5 4 7 7 3 4 5 5 5 6 5 5 6 9 9
10 12 11 10 10 10 9 10 11 11 9 6 5 5 6 5 5 5 6 7 7 7 8 8 7 6 7 7 6 5 4 5 5 3 3 2 3 3 4 4 6 7 6
19 17 15 13 11 11 11 10 11 10 9 10 9 9 6 5 4 5 5 6 7 8 8 9 8 7 7 7 6 5 6 5 5 5 3 4 1 2 3 4 5 6 5
17 17 17 15 14 12 9 10 10 10 11 12 13 14 9 7 5 4 5 6 7 8 8 8 8 8 7 7 6 5 4 5 3 4 5 4 3 2 3 4 4 6 5
18 20 19 17 12 10 10 10 10 11 12 10 11 12 9 8 8 6 8 7 6 6 7 7 8 8 7 7 7 7 6 4 4 3 3 4 4 4 2 2 5 5 4
16 15 12 11 10 9 10 11 12 11 11 11 10 12 16 15 14 11 9 7 5 5 6 7 7 7 7 7 7 7 8 6 6 5 3 3 3 2 2 1 2 3 4
14 15 17 16 15 14 12 12 13 12 11 12 10 11 15 17 17 15 12 10 7 5 6 7 6 6 6 6 6 7 6 5 6 5 4 3 3 2 2 1 1 3 3
14 17 18 18 16 15 14 13 14 12 12 13 11 10 11 10 10 10 11 10 8 6 7 7 7 7 7 7 6 6 5 5 5 5 4 3 3 2 1 1 0 2 3
14 15 15 15 15 15 15 15 14 12 13 13 13 12 10 9 10 9 8 8 7 8 8 8 8 7 7 7 6 5 5 5 4 4 4 3 2 2 2 1 1 1 3
11 12 13 14 13 13 10 11 12 13 12 13 13 12 11 10 11 11 11 10 9 9 10 8 8 7 7 6 6 5 5 5 4 3 4 3 2 2 1 1 1 1 2
14 13 11 10 10 10 10 11 11 11 12 13 12 13 11 10 11 10 11 11 9 10 10 10 9 8 7 6 6 5 5 5 4 3 3 3 2 2 1 1 1 1 1
10 10 10 11 11 12 12 12 12 12 13 12 12 13 12 12 12 11 11 11 11 10 10 9 9 8 7 7 7 7 6 6 5 5 4 4 3 3 2 2 2 2 3
10 10 11 13 14 14 14 14 13 13 12 12 13 13 13 14 13 13 12 11 11 10 9 9 10 9 8 7 7 7 6 6 6 5 5 5 4 4 3 4 3 3 4
12 13 14 14 15 15 15 15 14 13 13 13 14 15 15 15 14 13 12 12 11 11 11 10 9 8 8 8 7 7 6 6 6 6 6 5 6 5 5 4 5 4 5
13 17 17 16 15 15 16 16 16 15 15 15 16 15 13 12 11 12 12 11 11 11 10 9 8 7 7 7 8 8 7 7 6 6 6 6 8 9 7 5 5 5 4
17 18 18 17 18 19 19 18 18 17 16 17 15 12 12 12 12 12 12 11 10 9 9 10 10 9 8 14 17 11 7 7 8 8 7 7 7 10 13 13 12 10 6
19 19 21 21 21 21 20 21 18 15 15 14 12 12 13 13 13 12 12 12 12 10 10 10 10 10 12 18 18 18 9 8 8 8 7 6 6 7 7 10 13 12 14
17 17 17 19 18 16 15 13 12 14 15 13 13 13 13 13 12 12 13 12 9 10 10 10 11 10 12 19 18 18 10 8 9 9 8 8 7 8 8 7 8 9 9
16 16 17 16 14 15 15 14 14 14 15 15 15 14 14 14 13 14 13 10 9 10 10 8 10 11 12 18 19 17 7 8 10 9 9 9 9 13 16 10 9 10 9
9 9 8 8 11 13 15 16 15 16 18 17 15 13 13 14 15 14 11 8 9 10 9 8 9 10 10 15 18 18 6 7 8 7 9 12 15 16 17 11 9 11 9
4 6 8 9 10 13 16 16 15 17 15 11 11 12 13 13 12 10 8 8 8 7 8 8 7 8 9 12 17 18 8 8 7 7 8 9 17 19 20 17 11 14 11
2 4 6 6 7 11 14 14 14 11 9 10 11 11 11 10 9 10 9 8 9 9 8 7 6 6 6 9 14 19 18 14 8 9 7 8 17 19 20 16 16 19 13
4 4 7 7 6 7 10 11 8 9 10 10 10 9 9 8 8 10 10 8 8 7 7 7 8 6 5 7 15 16 19 20 12 8 14 16 18 18 15 18 20 12 4
4 4 7 8 5 4 5 6 8 9 10 10 9 8 8 7 6 6 7 8 8 8 7 7 7 5 4 5 5 5 7 12 12 9 10 16 19 17 13 9 10 5 4
3 4 6 6 6 5 6 6 7 8 8 8 7 7 6 7 6 6 5 7 6 7 8 6 5 5 6 7 10 7 6 5 7 5 3 4 5 6 6 5 5 4 4
4 5 5 6 6 6 6 4 4 6 8 7 6 5 5 5 5 5 2 5 6 8 9 8 7 6 8 8 10 12 13 13 13 8 5 6 7 8 8 8 7 6 6
Wind_Direction
201 184 182 177 173 174 167 160 153 150 142 135 128 116 103 92 83 76 79 88 94 95 98 99 88 83 84 80 81 85 68 48 32 83 73 49 52 66 58 51 45 33 22
190 191 187 182 181 180 177 171 166 162 158 140 126 117 116 101 85 83 74 76 89 95 100 99 95 88 88 72 59 71 85 54 27 90 109 78 17 19 37 39 39 27 13
197 191 188 188 184 185 182 176 170 164 149 136 125 119 108 100 89 88 79 69 81 87 96 97 98 89 89 85 70 69 91 95 45 43 104 119 137 324 341 22 31 18 7
198 189 187 188 188 184 176 170 165 157 150 149 147 146 144 138 134 127 110 92 84 90 94 97 98 93 90 88 79 70 79 101 91 54 44 77 118 93 340 337 359 1 354
196 191 189 186 179 172 171 166 158 156 156 158 156 144 133 127 129 122 112 102 90 89 95 98 99 96 93 91 88 80 73 75 91 91 83 68 59 65 99 320 327 334 322
193 187 177 168 169 168 166 164 161 161 160 158 158 149 143 142 142 140 131 122 112 100 98 99 99 100 100 98 95 91 86 83 84 81 79 95 95 78 86 260 296 307 303
181 176 175 176 176 174 171 168 165 164 163 159 158 157 153 153 153 150 146 143 138 132 128 118 112 108 108 105 102 97 92 90 93 93 86 84 90 110 124 164 274 293 294
182 184 183 180 177 175 172 170 169 166 165 163 161 158 156 154 154 154 152 150 148 144 140 129 122 120 117 114 108 102 100 99 100 100 100 96 86 85 102 136 188 300 297
187 185 181 179 177 177 177 174 170 167 168 165 160 161 162 159 155 151 145 144 144 144 140 134 130 127 124 123 119 113 113 112 107 111 109 108 102 95 93 104 144 208 298
187 184 182 181 179 177 171 170 171 170 167 164 166 167 167 161 156 154 155 154 151 146 146 142 138 135 133 132 124 122 127 123 125 129 127 125 125 118 115 116 121 165 211
190 186 182 178 174 169 170 171 171 167 168 169 167 164 166 160 159 160 160 158 154 153 155 153 149 147 147 144 138 141 145 145 150 153 155 161 157 157 163 164 175 195 202
185 179 174 172 176 179 178 179 177 176 175 170 166 166 165 162 164 165 165 161 159 160 159 156 155 157 157 157 156 160 164 168 176 181 181 191 184 188 191 191 206 221 224
175 174 177 184 187 186 185 185 184 180 174 169 168 168 170 171 172 170 168 166 164 163 162 162 165 167 167 168 172 171 175 184 191 192 197 202 198 211 206 206 216 225 241
184 185 190 193 192 190 189 187 186 181 176 175 176 178 179 178 175 171 170 170 169 169 171 172 172 171 173 176 178 180 184 192 202 205 208 209 209 216 213 219 222 225 237
197 198 199 197 193 192 192 190 187 183 181 181 184 186 179 173 169 170 172 171 174 176 174 171 172 173 178 187 185 188 191 198 210 217 220 221 223 227 225 226 221 221 233
209 208 203 198 196 195 194 191 190 186 183 187 189 179 173 173 175 175 173 175 177 175 174 179 179 184 195 203 201 195 198 205 213 223 225 227 229 239 247 251 251 243 236
214 209 205 203 201 198 193 193 190 180 183 186 180 176 176 179 180 176 176 182 182 178 183 187 188 197 208 208 209 206 199 208 216 221 223 229 225 221 234 251 260 263 265
219 213 208 206 202 193 188 181 171 174 181 183 181 179 179 181 177 177 185 187 181 186 190 194 197 203 215 215 215 213 207 212 221 222 221 227 231 224 228 235 243 244 248
218 214 208 202 189 183 175 165 169 173 180 187 187 184 181 180 180 187 191 187 183 192 196 194 198 207 220 220 220 216 207 221 230 227 224 227 233 240 244 243 243 250 251
219 208 188 171 170 169 159 164 173 179 190 192 188 181 181 184 188 193 188 183 188 196 195 203 205 211 220 223 223 221 210 224 234 232 232 233 236 242 245 240 237 249 253
210 174 160 165 168 158 160 171 177 191 191 177 170 174 183 188 188 184 180 180 186 187 195 208 210 213 220 229 228 226 215 221 231 236 237 236 244 248 248 245 238 246 254
96 129 138 139 141 153 160 171 186 182 155 157 168 176 181 181 178 179 180 179 182 192 201 209 221 222 220 222 234 235 233 229 226 238 239 239 247 250 251 251 250 256 258
78 92 116 114 121 148 160 171 169 144 148 157 168 171 171 176 176 180 179 176 182 195 204 208 225 228 212 228 235 239 241 243 239 240 245 248 251 253 254 254 254 253 229
77 93 111 116 115 121 129 135 133 140 146 158 162 161 166 170 170 174 176 181 188 197 204 209 222 225 210 210 218 230 243 249 252 256 256 258 259 256 249 247 252 236 206
80 100 115 120 119 111 103 110 128 136 142 149 151 157 164 168 172 177 187 189 195 196 200 208 204 205 226 228 224 215 219 222 237 251 257 246 244 242 242 238 231 224 216
100 101 102 109 109 107 100 97 119 134 139 144 154 159 160 160 161 161 164 214 196 211 221 209 200 217 232 247 245 246 245 245 244 241 241 245 245 245 242 237 233 226 227